Preview of NWS' New Version of Forecast
This preview is not operational and should not be used for support decisions.

Regional Weather Roundup (RWR)

Issued by Gray - Portland, ME (GYX)

                            
000
ASUS41 KGYX 210805
RWRGYX
WEATHER ROUNDUP FOR MAINE AND NEW HAMPSHIRE
NATIONAL WEATHER SERVICE GRAY ME
400 AM EDT SAT SEP 21 2019

MEZ002-005-006-010-012-015-018-020-021-024-026-027-029-210900-
MAINE
  
CITY           SKY/WX    TMP DP  RH WIND       PRES   REMARKS
PORTLAND       FAIR      57  52  83 CALM      30.12R                  
SANFORD        FAIR      51  50  96 CALM      30.13R                  
BAR HARBOR     CLOUDY    59  55  87 CALM      30.07R                  
WISCASSET      FAIR      54  51  90 CALM      30.12R                  
ROCKLAND       FAIR      58  52  80 W7        30.09R                  
FRYEBURG       FAIR      49  48  97 NW3       30.14R                  
LEWISTONAUBURN FAIR      54  51  90 CALM      30.12R                  
AUGUSTA        FAIR      62  53  72 W3        30.11R                  
WATERVILLE     FAIR      59  54  83 CALM      30.08R                  
BANGOR         FAIR      57  53  86 CALM      30.08S                  
GREENVILLE       N/A     59  54  83 N9        30.11R                  
MILLINOCKET    FAIR      59  56  89 W3        30.09R                  
HOULTON        FAIR      53  51  93 CALM      30.05R FOG              
PRESQUE ISLE   FAIR      58  54  86 NW9       30.09R                  
FRENCHVILLE    FAIR      54  50  86 N9        30.10R                  
CARIBOU        FAIR      57  52  83 NW7       30.07R                  
$$

NHZ002-005-008-009-011-012-014-210900-
NEW HAMPSHIRE
  
CITY           SKY/WX    TMP DP  RH WIND       PRES   REMARKS
PORTSMOUTH     CLEAR     57  51  81 W6        30.11R                  
ROCHESTER      FAIR      56  50  80 NW9       30.12S                  
NASHUA         FAIR      54  52  93 NW6       30.14F                  
MANCHESTER     FAIR      60  50  69 N3        30.13S                  
CONCORD        FAIR      50  48  93 CALM      30.16R                  
LACONIA        FAIR      57  54  89 CALM      30.16R                  
PLYMOUTH       FAIR      49  47  93 CALM      30.17R                  
BERLIN         FAIR      46  43  89 CALM      30.18S                  
WHITEFIELD     FAIR      45  43  93 CALM      30.19S                  
JAFFREY        FAIR      50  47  89 CALM      30.19S                  
KEENE          FAIR      47  47 100 CALM      30.20S FOG              
LEBANON        FAIR      50  44  80 CALM      30.19R                  
MT WASHINGTON  FOG       46  46 100 NW36G45     N/A  VSB 1/8          
$$

VTZ005-007-008-210900-
VERMONT
  
CITY           SKY/WX    TMP DP  RH WIND       PRES   REMARKS
ST JOHNSBURY     N/A     49  48  97 MISG      30.18R                  
MONTPELIER     FAIR      48  47  96 CALM      30.23R                  
BURLINGTON     FAIR      54  50  86 CALM      30.18S                  
$$

MAZ007-012-024-CTZ003-RIZ002-NYZ038-NYZ072-210900-
SOUTHERN NEW ENGLAND AND NY
  
CITY           SKY/WX    TMP DP  RH WIND       PRES   REMARKS
BOSTON         FAIR      67  49  52 NW9       30.13R                  
WORCESTER      FAIR      62  49  62 NW8       30.17F                  
NANTUCKET      FAIR      63  60  90 W8        30.13S                  
PROVIDENCE     FAIR      59  51  75 CALM      30.15S                  
HARTFORD       FAIR      51  48  89 CALM      30.18R                  
ALBANY         FAIR      53  48  83 SE5       30.21R                  
$$

ANZ081-ANZ082-ANZ150-NHZ014-MEZ023>029-210900-
COASTAL MARINE OBSERVATIONS
  
STATION/POSITION TIME  TEMP    WIND        PRES    WAVE
                       AIR SEA DIR/SP/G            HT/PER
                 (UTC) (F)     (DEG/KT/KT) (MB)    (FT/S)
MOUNT DESERT ROC 0700          280/ 12/ 12 1017.5R
MATINICUS ROCK   0750   61                 1018.2R
ISLE OF SHOALS   0700   64     280/  9/  9 1019.1S
JEFFREYS LEDGE   0738      62                N/A     6/13
CASHES LEDGE BUO 0750   63 60  310/ 10/ 12 1019.0R   7/13
GEORGES BANK BUO 0750   60 58              1018.8F   6/11
$$

.............KEY..............
   WCI - WIND CHILL
   TC  - TEMPERATURE IN CELSIUS
   VSB - VISIBILITY IN MILES
   HX  - HEAT INDEX
   FAIR- INDICATES FEW OR NO CLOUDS BELOW 12,000 FT, WITH NO 
         SIGNIFICANT WEATHER AND/OR OBSTRUCTIONS TO VISIBILITY.